sat.trackr.live / text

‹ back to catalog

ARVAKER-3

NORAD 64566 · 2025-135AQ

PAYLOAD ACTIVE UNKNOWN

§ Identity

Operator
Country
NOR
Launch date
2025-06-23
Launch site
AFWTR
Launch vehicle
Mass (kg)
RCS (m²)

External: N2YO · Heavens-Above · Gunter

§ Orbital elements

Epoch: 2026-09-21T22:50:59.630784Z

Period
96.39 min
Inclination
97.7803°
Eccentricity
0.0001871
Mean motion
14.93933335 rev/d
Perigee alt
584.4 km
Apogee alt
587.0 km
Semi-major
6,963.8 km
B*
1.1244e-4
RAAN
18.0585°
Arg perigee
28.3692°
Mean anomaly
331.7630°
Rev number
6,832

§ Raw data

ARVAKER-31 64566U 25135AQ  26264.95207906  .00001139  00000+0  11244-3 0  99992 64566  97.7803  18.0585 0001871  28.3692 331.7630 14.93933335 68322

JSON: /api/v1/satellites/64566 · /tle

For live sub-satellite position, see the globe view (requires WebGL).

§ Visibility from observer

Set your observer location to see the next 7 days of passes ≥ 10°. The values pass through the URL so the page stays shareable.

No JS? Fill the form by hand. The geolocation button needs JavaScript.